| time (UTC) | temp F | wind direction | speed knots | gust knots | rain 1hr in | rain 24hr in | rain mn in | humidity % | barometer mb |
| 20260902014748 | 91 | 122 | 1.7 | 2.6 | 0.00 | 0.00 | 0.00 | 52 | 1014.9 |
| 20260902014244 | 91 | 61 | 3.5 | 3.5 | 0.00 | 0.00 | 0.00 | 52 | 1014.7 |
| 20260902013743 | 91 | 48 | 4.3 | 5.2 | 0.00 | 0.00 | 0.00 | 51 | 1014.6 |
| 20260902013238 | 91 | 17 | 1.7 | 3.5 | 0.00 | 0.00 | 0.00 | 51 | 1014.6 |
| 20260902012733 | 92 | 75 | 6.1 | 7.8 | 0.00 | 0.00 | 0.00 | 50 | 1014.6 |
| 20260902012230 | 92 | 97 | 3.5 | 5.2 | 0.00 | 0.00 | 0.00 | 49 | 1014.5 |
| 20260902011724 | 92 | 82 | 4.3 | 7.0 | 0.00 | 0.00 | 0.00 | 49 | 1014.6 |
| 20260902011223 | 92 | 89 | 3.5 | 5.2 | 0.00 | 0.00 | 0.00 | 48 | 1014.5 |
| 20260902010718 | 93 | 97 | 1.7 | 2.6 | 0.00 | 0.00 | 0.00 | 46 | 1014.6 |
| 20260902010214 | 93 | 135 | 0.9 | 0.9 | 0.00 | 0.00 | 0.00 | 46 | 1014.5 |
| 20260902005712 | 93 | 92 | 3.5 | 6.1 | 0.00 | 0.00 | 0.00 | 45 | 1014.4 |
| 20260902005208 | 93 | 91 | 2.6 | 3.5 | 0.00 | 0.00 | 0.00 | 45 | 1014.4 |
| 20260902004708 | 94 | 41 | 2.6 | 3.5 | 0.00 | 0.00 | 0.00 | 45 | 1014.5 |
| 20260902004202 | 94 | 68 | 0.9 | 1.7 | 0.00 | 0.00 | 0.00 | 45 | 1014.5 |
| 20260902003652 | 94 | 98 | 4.3 | 5.2 | 0.00 | 0.00 | 0.00 | 45 | 1014.6 |
| 20260902003147 | 95 | 84 | 5.2 | 7.0 | 0.00 | 0.00 | 0.00 | 45 | 1014.7 |
| 20260902002643 | 95 | 61 | 3.5 | 5.2 | 0.00 | 0.00 | 0.00 | 45 | 1014.6 |
| 20260902002142 | 95 | 64 | 1.7 | 2.6 | 0.00 | 0.00 | 0.00 | 45 | 1014.7 |
| 20260902001638 | 95 | 66 | 1.7 | 3.5 | 0.00 | 0.00 | 0.00 | 45 | 1014.4 |
| 20260902001132 | 95 | 41 | 2.6 | 2.6 | 0.00 | 0.00 | 0.00 | 45 | 1014.6 |
| 20260902000627 | 95 | 76 | 5.2 | 8.7 | 0.00 | 0.00 | 0.00 | 44 | 1014.6 |
| 20260902000122 | 96 | 46 | 6.1 | 7.8 | 0.00 | 0.00 | 0.00 | 44 | 1014.4 |
| 20260901235622 | 96 | 51 | 4.3 | 7.8 | 0.00 | 0.00 | 0.00 | 43 | 1014.5 |
| 20260901235118 | 96 | 94 | 4.3 | 6.1 | 0.00 | 0.00 | 0.00 | 40 | 1014.5 |
| 20260901234616 | 96 | 92 | 1.7 | 2.6 | 0.00 | 0.00 | 0.00 | 40 | 1014.4 |
| 20260901234112 | 96 | 65 | 1.7 | 3.5 | 0.00 | 0.00 | 0.00 | 41 | 1014.3 |
| 20260901233607 | 96 | 36 | 7.0 | 8.7 | 0.00 | 0.00 | 0.00 | 41 | 1014.4 |
| 20260901233103 | 96 | 57 | 3.5 | 6.1 | 0.00 | 0.00 | 0.00 | 41 | 1014.4 |
| 20260901232557 | 96 | 42 | 2.6 | 3.5 | 0.00 | 0.00 | 0.00 | 41 | 1014.5 |
| 20260901232058 | 97 | 70 | 3.5 | 6.1 | 0.00 | 0.00 | 0.00 | 41 | 1014.3 |
| 20260901231554 | 97 | 103 | 2.6 | 3.5 | 0.00 | 0.00 | 0.00 | 43 | 1014.4 |
| 20260901231050 | 97 | 62 | 2.6 | 3.5 | 0.00 | 0.00 | 0.00 | 43 | 1014.4 |
| 20260901230546 | 97 | 35 | 3.5 | 3.5 | 0.00 | 0.00 | 0.00 | 43 | 1014.5 |
| 20260901230040 | 97 | 35 | 1.7 | 2.6 | 0.00 | 0.00 | 0.00 | 43 | 1014.6 |
| 20260901225535 | 98 | 52 | 6.1 | 7.8 | 0.00 | 0.00 | 0.00 | 42 | 1014.6 |
| 20260901225035 | 98 | 17 | 3.5 | 5.2 | 0.00 | 0.00 | 0.00 | 42 | 1014.6 |
| 20260901224531 | 97 | 34 | 4.3 | 7.0 | 0.00 | 0.00 | 0.00 | 42 | 1014.5 |
| 20260901224027 | 97 | 62 | 2.6 | 5.2 | 0.00 | 0.00 | 0.00 | 43 | 1014.5 |
| 20260901223522 | 97 | 139 | 2.6 | 5.2 | 0.00 | 0.00 | 0.00 | 43 | 1014.4 |
| 20260901223018 | 97 | 50 | 5.2 | 6.1 | 0.00 | 0.00 | 0.00 | 43 | 1014.6 |
| 20260901222514 | 97 | 81 | 6.1 | 6.1 | 0.00 | 0.00 | 0.00 | 43 | 1014.5 |
| 20260901222009 | 97 | 98 | 5.2 | 7.0 | 0.00 | 0.00 | 0.00 | 43 | 1014.4 |
| 20260901221505 | 97 | 63 | 6.1 | 7.0 | 0.00 | 0.00 | 0.00 | 43 | 1014.6 |
| 20260901221001 | 98 | 81 | 5.2 | 7.0 | 0.00 | 0.00 | 0.00 | 42 | 1014.5 |
| 20260901220500 | 97 | 27 | 4.3 | 6.1 | 0.00 | 0.00 | 0.00 | 42 | 1014.8 |
| 20260901215958 | 97 | 19 | 2.6 | 2.6 | 0.00 | 0.00 | 0.00 | 43 | 1014.7 |
| 20260901215457 | 97 | 52 | 0.0 | 0.9 | 0.00 | 0.00 | 0.00 | 44 | 1014.7 |
| 20260901214956 | 98 | 65 | 4.3 | 6.1 | 0.00 | 0.00 | 0.00 | 42 | 1014.6 |
| 20260901214455 | 97 | 142 | 3.5 | 6.1 | 0.00 | 0.00 | 0.00 | 42 | 1014.5 |
| 20260901213950 | 96 | 143 | 3.5 | 5.2 | 0.00 | 0.00 | 0.00 | 42 | 1014.8 |
| 20260901213444 | 95 | 143 | 0.0 | 1.7 | 0.00 | 0.00 | 0.00 | 44 | 1014.8 |
| 20260901212943 | 95 | 102 | 3.5 | 5.2 | 0.00 | 0.00 | 0.00 | 44 | 1014.7 |
| 20260901212439 | 96 | 69 | 1.7 | 2.6 | 0.00 | 0.00 | 0.00 | 45 | 1014.9 |
| 20260901211936 | 97 | 13 | 2.6 | 3.5 | 0.00 | 0.00 | 0.00 | 44 | 1014.7 |
| 20260901211431 | 98 | 273 | 0.0 | 0.0 | 0.00 | 0.00 | 0.00 | 44 | 1015.1 |
| 20260901210927 | 96 | 94 | 4.3 | 7.0 | 0.00 | 0.00 | 0.00 | 44 | 1014.9 |
| 20260901210423 | 98 | 63 | 0.9 | 1.7 | 0.00 | 0.00 | 0.00 | 45 | 1014.9 |
| 20260901205919 | 97 | 256 | 0.0 | 0.0 | 0.00 | 0.00 | 0.00 | 44 | 1015.0 |
| 20260901205413 | 96 | 98 | 5.2 | 6.1 | 0.00 | 0.00 | 0.00 | 46 | 1015.3 |
| 20260901204908 | 96 | 47 | 0.0 | 0.0 | 0.00 | 0.00 | 0.00 | 45 | 1015.3 |
| 20260901204405 | 95 | 62 | 3.5 | 5.2 | 0.00 | 0.00 | 0.00 | 47 | 1015.4 |
| 20260901203904 | 95 | 38 | 1.7 | 3.5 | 0.00 | 0.00 | 0.00 | 47 | 1015.4 |
| 20260901203358 | 96 | 7 | 6.1 | 7.0 | 0.00 | 0.00 | 0.00 | 45 | 1015.7 |
| 20260901202853 | 96 | 82 | 5.2 | 7.8 | 0.00 | 0.00 | 0.00 | 45 | 1015.4 |
| 20260901202348 | 95 | 14 | 0.0 | 0.0 | 0.00 | 0.00 | 0.00 | 46 | 1015.5 |
| 20260901201845 | 97 | 30 | 0.0 | 0.0 | 0.00 | 0.00 | 0.00 | 44 | 1015.7 |
| 20260901201344 | 96 | 68 | 0.0 | 0.0 | 0.00 | 0.00 | 0.00 | 45 | 1015.7 |
| 20260901200838 | 96 | 89 | 2.6 | 2.6 | 0.00 | 0.00 | 0.00 | 44 | 1015.9 |
| 20260901200333 | 98 | 47 | 6.1 | 8.7 | 0.00 | 0.00 | 0.00 | 43 | 1015.8 |
| 20260901195832 | 95 | 330 | 0.0 | 0.0 | 0.00 | 0.00 | 0.00 | 46 | 1015.9 |
| 20260901195330 | 95 | 121 | 3.5 | 5.2 | 0.00 | 0.00 | 0.00 | 47 | 1016.1 |
| 20260901194826 | 95 | 72 | 4.3 | 7.0 | 0.00 | 0.00 | 0.00 | 47 | 1016.2 |
| 20260901194321 | 94 | 176 | 1.7 | 1.7 | 0.00 | 0.00 | 0.00 | 47 | 1016.2 |
| 20260901193818 | 95 | 97 | 1.7 | 2.6 | 0.00 | 0.00 | 0.00 | 47 | 1016.0 |
| 20260901193316 | 96 | 98 | 1.7 | 2.6 | 0.00 | 0.00 | 0.00 | 47 | 1016.4 |
| 20260901192811 | 95 | 58 | 0.9 | 0.9 | 0.00 | 0.00 | 0.00 | 47 | 1016.5 |
| 20260901192306 | 95 | 82 | 5.2 | 6.1 | 0.00 | 0.00 | 0.00 | 46 | 1016.5 |
| 20260901191803 | 95 | 80 | 7.0 | 8.7 | 0.00 | 0.00 | 0.00 | 47 | 1016.5 |
| 20260901191258 | 95 | 113 | 3.5 | 5.2 | 0.00 | 0.00 | 0.00 | 48 | 1016.5 |
| 20260901190754 | 95 | 17 | 1.7 | 2.6 | 0.00 | 0.00 | 0.00 | 47 | 1016.5 |
| 20260901190253 | 96 | 89 | 1.7 | 2.6 | 0.00 | 0.00 | 0.00 | 48 | 1016.7 |
| 20260901185752 | 96 | 87 | 4.3 | 7.0 | 0.00 | 0.00 | 0.00 | 48 | 1016.7 |
| 20260901185251 | 94 | 318 | 0.9 | 1.7 | 0.00 | 0.00 | 0.00 | 48 | 1016.7 |
| 20260901184747 | 94 | 76 | 1.7 | 2.6 | 0.00 | 0.00 | 0.00 | 49 | 1016.8 |
| 20260901184242 | 95 | 78 | 1.7 | 2.6 | 0.00 | 0.00 | 0.00 | 49 | 1017.0 |
| 20260901183738 | 93 | 161 | 4.3 | 6.1 | 0.00 | 0.00 | 0.00 | 49 | 1017.1 |
| 20260901183237 | 94 | 89 | 0.9 | 1.7 | 0.00 | 0.00 | 0.00 | 49 | 1017.2 |
| 20260901182733 | 93 | 145 | 2.6 | 3.5 | 0.00 | 0.00 | 0.00 | 48 | 1017.0 |
| 20260901182232 | 93 | 20 | 0.9 | 1.7 | 0.00 | 0.00 | 0.00 | 51 | 1017.4 |
| 20260901181727 | 93 | 36 | 2.6 | 2.6 | 0.00 | 0.00 | 0.00 | 51 | 1017.4 |
| 20260901181222 | 93 | 91 | 2.6 | 2.6 | 0.00 | 0.00 | 0.00 | 52 | 1017.6 |
| 20260901180721 | 93 | 204 | 0.9 | 1.7 | 0.00 | 0.00 | 0.00 | 51 | 1017.6 |
| 20260901180220 | 92 | 64 | 0.0 | 0.9 | 0.00 | 0.00 | 0.00 | 52 | 1017.7 |
| 20260901175719 | 94 | 69 | 7.8 | 9.6 | 0.00 | 0.00 | 0.00 | 51 | 1017.7 |
| 20260901175215 | 93 | 120 | 1.7 | 1.7 | 0.00 | 0.00 | 0.00 | 53 | 1017.8 |
| 20260901174710 | 93 | 129 | 4.3 | 6.1 | 0.00 | 0.00 | 0.00 | 51 | 1017.9 |
| 20260901174206 | 92 | 4 | 1.7 | 2.6 | 0.00 | 0.00 | 0.00 | 52 | 1018.2 |
| 20260901173701 | 92 | 123 | 1.7 | 1.7 | 0.00 | 0.00 | 0.00 | 53 | 1017.8 |
| 20260901173156 | 92 | 314 | 0.9 | 0.9 | 0.00 | 0.00 | 0.00 | 52 | 1018.1 |
| 20260901172652 | 91 | 91 | 0.9 | 0.9 | 0.00 | 0.00 | 0.00 | 53 | 1018.2 |
| 20260901172149 | 91 | 80 | 3.5 | 6.1 | 0.00 | 0.00 | 0.00 | 53 | 1018.4 |
| 20260901171643 | 92 | 64 | 3.5 | 7.8 | 0.00 | 0.00 | 0.00 | 55 | 1018.4 |
| 20260901171137 | 92 | 42 | 1.7 | 2.6 | 0.00 | 0.00 | 0.00 | 53 | 1018.3 |
| 20260901170637 | 92 | 170 | 1.7 | 2.6 | 0.00 | 0.00 | 0.00 | 54 | 1018.5 |
| 20260901170132 | 92 | 7 | 0.0 | 0.0 | 0.00 | 0.00 | 0.00 | 55 | 1018.4 |
| 20260901165631 | 90 | 28 | 1.7 | 2.6 | 0.00 | 0.00 | 0.00 | 57 | 1018.7 |
| 20260901165126 | 90 | 90 | 1.7 | 2.6 | 0.00 | 0.00 | 0.00 | 58 | 1018.8 |
| 20260901164622 | 92 | 79 | 2.6 | 2.6 | 0.00 | 0.00 | 0.00 | 55 | 1018.7 |
| 20260901164117 | 91 | 58 | 2.6 | 2.6 | 0.00 | 0.00 | 0.00 | 56 | 1018.8 |
| 20260901163613 | 90 | 129 | 2.6 | 3.5 | 0.00 | 0.00 | 0.00 | 57 | 1018.7 |
| 20260901163111 | 91 | 29 | 1.7 | 2.6 | 0.00 | 0.00 | 0.00 | 56 | 1018.5 |
| 20260901162606 | 89 | 65 | 4.3 | 6.1 | 0.00 | 0.00 | 0.00 | 58 | 1018.8 |
| 20260901162100 | 90 | 106 | 2.6 | 3.5 | 0.00 | 0.00 | 0.00 | 58 | 1018.9 |
| 20260901161559 | 89 | 268 | 0.0 | 0.0 | 0.00 | 0.00 | 0.00 | 59 | 1018.9 |
| 20260901161059 | 90 | 86 | 5.2 | 6.1 | 0.00 | 0.00 | 0.00 | 60 | 1018.7 |
| 20260901160555 | 90 | 213 | 0.9 | 1.7 | 0.00 | 0.00 | 0.00 | 60 | 1018.8 |
| 20260901160050 | 89 | 250 | 0.9 | 0.9 | 0.00 | 0.00 | 0.00 | 62 | 1018.9 |
| 20260901155549 | 89 | 356 | 1.7 | 2.6 | 0.00 | 0.00 | 0.00 | 63 | 1018.9 |
| 20260901155044 | 89 | 68 | 1.7 | 2.6 | 0.00 | 0.00 | 0.00 | 65 | 1018.9 |
| 20260901154539 | 88 | 243 | 0.9 | 0.9 | 0.00 | 0.00 | 0.00 | 64 | 1019.0 |
| 20260901154034 | 87 | 184 | 0.0 | 0.0 | 0.00 | 0.00 | 0.00 | 67 | 1018.9 |
| 20260901153528 | 89 | 85 | 0.9 | 1.7 | 0.00 | 0.00 | 0.00 | 65 | 1018.8 |
| 20260901153022 | 88 | 222 | 0.0 | 0.9 | 0.00 | 0.00 | 0.00 | 65 | 1018.9 |
| 20260901152517 | 87 | 113 | 0.0 | 0.9 | 0.00 | 0.00 | 0.00 | 67 | 1018.8 |
| 20260901152016 | 87 | 113 | 0.0 | 0.9 | 0.00 | 0.00 | 0.00 | 69 | 1018.9 |
| 20260901151512 | 86 | 269 | 1.7 | 1.7 | 0.00 | 0.00 | 0.00 | 68 | 1018.8 |
| 20260901151011 | 86 | 285 | 0.9 | 0.9 | 0.00 | 0.00 | 0.00 | 71 | 1018.7 |
| 20260901150509 | 85 | 234 | 1.7 | 1.7 | 0.00 | 0.00 | 0.00 | 72 | 1018.8 |
| 20260901150008 | 85 | 337 | 0.0 | 0.0 | 0.00 | 0.00 | 0.00 | 73 | 1018.7 |
| 20260901145501 | 85 | 312 | 1.7 | 2.6 | 0.00 | 0.00 | 0.00 | 74 | 1018.7 |
| 20260901145001 | 84 | 144 | 1.7 | 2.6 | 0.00 | 0.00 | 0.00 | 73 | 1018.8 |
| 20260901144456 | 84 | 261 | 1.7 | 1.7 | 0.00 | 0.00 | 0.00 | 76 | 1019.0 |
| 20260901143951 | 85 | 258 | 1.7 | 1.7 | 0.00 | 0.00 | 0.00 | 74 | 1019.0 |
| 20260901143447 | 84 | 235 | 1.7 | 1.7 | 0.00 | 0.00 | 0.00 | 77 | 1019.0 |
| 20260901142944 | 83 | 311 | 1.7 | 2.6 | 0.00 | 0.00 | 0.00 | 78 | 1019.1 |
| 20260901142438 | 83 | 291 | 3.5 | 3.5 | 0.00 | 0.00 | 0.00 | 79 | 1019.0 |
| 20260901141933 | 82 | 289 | 2.6 | 2.6 | 0.00 | 0.00 | 0.00 | 79 | 1019.2 |
| 20260901141427 | 82 | 235 | 0.0 | 0.9 | 0.00 | 0.00 | 0.00 | 80 | 1019.1 |
| 20260901140922 | 82 | 257 | 0.9 | 1.7 | 0.00 | 0.00 | 0.00 | 80 | 1019.2 |
| 20260901140420 | 82 | 275 | 1.7 | 1.7 | 0.00 | 0.00 | 0.00 | 80 | 1019.4 |
| 20260901135914 | 82 | 260 | 3.5 | 3.5 | 0.00 | 0.00 | 0.00 | 81 | 1019.2 |
| 20260901135409 | 82 | 260 | 1.7 | 1.7 | 0.00 | 0.00 | 0.00 | 81 | 1019.2 |
| 20260901134905 | 83 | 290 | 1.7 | 2.6 | 0.00 | 0.00 | 0.00 | 80 | 1019.2 |
| 20260901134400 | 84 | 11 | 0.0 | 0.0 | 0.00 | 0.00 | 0.00 | 78 | 1019.3 |
| 20260901133854 | 84 | 11 | 0.0 | 0.0 | 0.00 | 0.00 | 0.00 | 78 | 1019.2 |
| 20260901133354 | 82 | 319 | 0.0 | 0.0 | 0.00 | 0.00 | 0.00 | 81 | 1019.1 |
| 20260901132853 | 83 | 76 | 0.0 | 0.0 | 0.00 | 0.00 | 0.00 | 79 | 1019.1 |
| 20260901132348 | 83 | 76 | 0.0 | 0.0 | 0.00 | 0.00 | 0.00 | 80 | 1019.0 |
| 20260901131847 | 82 | 77 | 0.0 | 0.0 | 0.00 | 0.00 | 0.00 | 82 | 1019.0 |
| 20260901131346 | 81 | 320 | 0.0 | 0.0 | 0.00 | 0.00 | 0.00 | 84 | 1019.0 |
| 20260901130842 | 80 | 149 | 0.9 | 0.9 | 0.00 | 0.00 | 0.00 | 85 | 1018.8 |
| 20260901130337 | 80 | 192 | 0.0 | 0.0 | 0.00 | 0.00 | 0.00 | 85 | 1018.8 |
| 20260901125835 | 79 | 154 | 0.9 | 1.7 | 0.00 | 0.00 | 0.00 | 86 | 1018.5 |
| 20260901125334 | 79 | 207 | 0.0 | 0.0 | 0.00 | 0.00 | 0.00 | 87 | 1018.7 |
| 20260901124829 | 78 | 207 | 0.0 | 0.0 | 0.00 | 0.00 | 0.00 | 88 | 1018.6 |
| 20260901124324 | 78 | 207 | 0.0 | 0.0 | 0.00 | 0.00 | 0.00 | 88 | 1018.3 |
| 20260901123824 | 78 | 207 | 0.0 | 0.0 | 0.00 | 0.00 | 0.00 | 89 | 1018.5 |
| 20260901123319 | 78 | 206 | 0.0 | 0.0 | 0.00 | 0.00 | 0.00 | 89 | 1018.5 |
| 20260901122817 | 78 | 201 | 0.0 | 0.0 | 0.00 | 0.00 | 0.00 | 90 | 1018.4 |
| 20260901122312 | 77 | 221 | 0.0 | 0.0 | 0.00 | 0.00 | 0.00 | 90 | 1018.3 |
| 20260901121811 | 77 | 221 | 0.0 | 0.0 | 0.00 | 0.00 | 0.00 | 90 | 1018.2 |
| 20260901121307 | 77 | 221 | 0.0 | 0.0 | 0.00 | 0.00 | 0.00 | 90 | 1017.9 |
| 20260901120806 | 78 | 226 | 0.0 | 0.0 | 0.00 | 0.00 | 0.00 | 90 | 1018.1 |
| 20260901120301 | 77 | 222 | 0.0 | 0.9 | 0.00 | 0.00 | 0.00 | 90 | 1017.9 |
| 20260901115757 | 78 | 247 | 0.0 | 0.0 | 0.00 | 0.00 | 0.00 | 90 | 1018.1 |
| 20260901115252 | 78 | 229 | 0.0 | 0.9 | 0.00 | 0.00 | 0.00 | 89 | 1017.9 |
| 20260901114749 | 78 | 237 | 0.9 | 0.9 | 0.00 | 0.00 | 0.00 | 89 | 1018.1 |
| 20260901114245 | 78 | 206 | 0.9 | 0.9 | 0.00 | 0.00 | 0.00 | 89 | 1018.3 |
| 20260901113742 | 78 | 196 | 0.9 | 0.9 | 0.00 | 0.00 | 0.00 | 89 | 1018.1 |
| 20260901113237 | 78 | 236 | 0.0 | 0.9 | 0.00 | 0.00 | 0.00 | 89 | 1018.1 |
| 20260901112732 | 78 | 198 | 0.9 | 0.9 | 0.00 | 0.00 | 0.00 | 88 | 1018.2 |
| 20260901112232 | 78 | 189 | 0.9 | 0.9 | 0.00 | 0.00 | 0.00 | 88 | 1018.2 |
| 20260901111727 | 78 | 191 | 1.7 | 1.7 | 0.00 | 0.00 | 0.00 | 88 | 1018.1 |
| 20260901111226 | 78 | 234 | 1.7 | 1.7 | 0.00 | 0.00 | 0.00 | 88 | 1018.1 |
| 20260901110720 | 78 | 206 | 0.9 | 0.9 | 0.00 | 0.00 | 0.00 | 88 | 1018.3 |
| 20260901110215 | 78 | 232 | 0.9 | 0.9 | 0.00 | 0.00 | 0.00 | 88 | 1018.1 |
| 20260901105712 | 78 | 196 | 1.7 | 1.7 | 0.00 | 0.00 | 0.00 | 87 | 1017.9 |
| 20260901105211 | 79 | 201 | 2.6 | 2.6 | 0.00 | 0.00 | 0.00 | 87 | 1018.2 |
| 20260901104708 | 79 | 241 | 2.6 | 3.5 | 0.00 | 0.00 | 0.00 | 87 | 1018.1 |
| 20260901104203 | 79 | 222 | 2.6 | 2.6 | 0.00 | 0.00 | 0.00 | 87 | 1017.7 |
| 20260901103702 | 79 | 238 | 2.6 | 2.6 | 0.00 | 0.00 | 0.00 | 87 | 1017.7 |
| 20260901103157 | 79 | 184 | 3.5 | 3.5 | 0.00 | 0.00 | 0.00 | 86 | 1017.8 |
| 20260901102652 | 79 | 216 | 2.6 | 2.6 | 0.00 | 0.00 | 0.00 | 86 | 1017.7 |
| 20260901102151 | 79 | 195 | 0.9 | 1.7 | 0.00 | 0.00 | 0.00 | 86 | 1017.7 |
| 20260901101648 | 79 | 208 | 1.7 | 2.6 | 0.00 | 0.00 | 0.00 | 86 | 1017.7 |
| 20260901101146 | 79 | 227 | 1.7 | 1.7 | 0.00 | 0.00 | 0.00 | 86 | 1017.7 |
| 20260901100641 | 79 | 211 | 2.6 | 2.6 | 0.00 | 0.00 | 0.00 | 86 | 1017.8 |
| 20260901100136 | 79 | 209 | 2.6 | 2.6 | 0.00 | 0.00 | 0.00 | 86 | 1017.7 |
| 20260901095634 | 79 | 204 | 3.5 | 5.2 | 0.00 | 0.00 | 0.00 | 85 | 1017.5 |
| 20260901095132 | 79 | 225 | 3.5 | 3.5 | 0.00 | 0.00 | 0.00 | 85 | 1017.7 |
| 20260901094626 | 80 | 234 | 0.9 | 1.7 | 0.00 | 0.00 | 0.00 | 84 | 1017.8 |
| 20260901094121 | 80 | 228 | 0.9 | 0.9 | 0.00 | 0.00 | 0.00 | 84 | 1017.6 |
| 20260901093616 | 80 | 230 | 1.7 | 1.7 | 0.00 | 0.00 | 0.00 | 84 | 1017.7 |
| 20260901093115 | 80 | 210 | 2.6 | 2.6 | 0.00 | 0.00 | 0.00 | 83 | 1017.7 |
| 20260901092611 | 80 | 171 | 3.5 | 3.5 | 0.00 | 0.00 | 0.00 | 83 | 1017.9 |
| 20260901092107 | 80 | 184 | 2.6 | 3.5 | 0.00 | 0.00 | 0.00 | 83 | 1017.8 |
| 20260901091603 | 80 | 193 | 1.7 | 1.7 | 0.00 | 0.00 | 0.00 | 82 | 1017.8 |
| 20260901091058 | 80 | 181 | 0.9 | 1.7 | 0.00 | 0.00 | 0.00 | 82 | 1017.8 |
| 20260901090557 | 80 | 181 | 2.6 | 2.6 | 0.00 | 0.00 | 0.00 | 82 | 1017.8 |
| 20260901090053 | 80 | 136 | 2.6 | 2.6 | 0.00 | 0.00 | 0.00 | 81 | 1017.8 |
| 20260901085548 | 80 | 184 | 1.7 | 1.7 | 0.00 | 0.00 | 0.00 | 81 | 1017.7 |
| 20260901085044 | 81 | 174 | 1.7 | 2.6 | 0.00 | 0.00 | 0.00 | 81 | 1018.1 |
| 20260901084540 | 81 | 150 | 2.6 | 2.6 | 0.00 | 0.00 | 0.00 | 80 | 1017.7 |
| 20260901084036 | 81 | 128 | 1.7 | 1.7 | 0.00 | 0.00 | 0.00 | 80 | 1017.6 |
| 20260901083530 | 81 | 173 | 2.6 | 2.6 | 0.00 | 0.00 | 0.00 | 79 | 1017.7 |
| 20260901083028 | 81 | 179 | 2.6 | 2.6 | 0.00 | 0.00 | 0.00 | 79 | 1017.4 |
| 20260901082524 | 81 | 169 | 1.7 | 2.6 | 0.00 | 0.00 | 0.00 | 79 | 1017.8 |
| 20260901082019 | 81 | 174 | 2.6 | 2.6 | 0.00 | 0.00 | 0.00 | 78 | 1017.6 |
| 20260901081514 | 81 | 187 | 0.9 | 1.7 | 0.00 | 0.00 | 0.00 | 78 | 1017.7 |
| 20260901081008 | 82 | 107 | 0.9 | 1.7 | 0.00 | 0.00 | 0.00 | 78 | 1017.6 |
| 20260901080508 | 82 | 183 | 5.2 | 5.2 | 0.00 | 0.00 | 0.00 | 77 | 1017.8 |
| 20260901080002 | 82 | 159 | 1.7 | 2.6 | 0.00 | 0.00 | 0.00 | 77 | 1017.8 |
| 20260901075458 | 82 | 112 | 1.7 | 2.6 | 0.00 | 0.00 | 0.00 | 77 | 1017.8 |
| 20260901074956 | 82 | 131 | 2.6 | 2.6 | 0.00 | 0.00 | 0.00 | 77 | 1017.8 |
| 20260901074451 | 82 | 180 | 3.5 | 3.5 | 0.00 | 0.00 | 0.00 | 77 | 1017.7 |
| 20260901073946 | 82 | 201 | 2.6 | 3.5 | 0.00 | 0.00 | 0.00 | 76 | 1017.9 |
| 20260901073443 | 82 | 137 | 4.3 | 5.2 | 0.00 | 0.00 | 0.00 | 76 | 1017.9 |
| 20260901072943 | 82 | 157 | 2.6 | 2.6 | 0.00 | 0.00 | 0.00 | 75 | 1017.7 |
| 20260901072438 | 82 | 127 | 1.7 | 1.7 | 0.00 | 0.00 | 0.00 | 74 | 1017.7 |
| 20260901071933 | 82 | 97 | 0.9 | 1.7 | 0.00 | 0.00 | 0.00 | 74 | 1018.1 |
| 20260901071432 | 82 | 140 | 0.9 | 0.9 | 0.00 | 0.00 | 0.00 | 73 | 1018.1 |
| 20260901070932 | 83 | 165 | 2.6 | 2.6 | 0.00 | 0.00 | 0.00 | 73 | 1017.8 |
| 20260901070427 | 83 | 179 | 2.6 | 2.6 | 0.00 | 0.00 | 0.00 | 73 | 1017.9 |
| 20260901065926 | 82 | 191 | 4.3 | 7.0 | 0.00 | 0.00 | 0.00 | 73 | 1017.8 |
| 20260901065422 | 83 | 98 | 0.9 | 1.7 | 0.00 | 0.00 | 0.00 | 73 | 1017.6 |
| 20260901064916 | 83 | 166 | 4.3 | 6.1 | 0.00 | 0.00 | 0.00 | 73 | 1017.9 |
| 20260901064413 | 83 | 155 | 4.3 | 6.1 | 0.00 | 0.00 | 0.00 | 74 | 1017.6 |
| 20260901063910 | 83 | 138 | 1.7 | 2.6 | 0.00 | 0.00 | 0.00 | 74 | 1017.7 |
| 20260901063406 | 83 | 162 | 3.5 | 6.1 | 0.00 | 0.00 | 0.00 | 74 | 1017.6 |
| 20260901062856 | 83 | 148 | 2.6 | 3.5 | 0.00 | 0.00 | 0.00 | 74 | 1017.7 |
| 20260901062352 | 83 | 118 | 2.6 | 2.6 | 0.00 | 0.00 | 0.00 | 74 | 1017.7 |
| 20260901061847 | 83 | 159 | 7.8 | 8.7 | 0.00 | 0.00 | 0.00 | 73 | 1017.5 |
| 20260901061342 | 83 | 83 | 3.5 | 3.5 | 0.00 | 0.00 | 0.00 | 73 | 1017.5 |
| 20260901060832 | 83 | 170 | 6.1 | 7.8 | 0.00 | 0.00 | 0.00 | 72 | 1017.5 |
| 20260901060328 | 83 | 148 | 3.5 | 3.5 | 0.00 | 0.00 | 0.00 | 72 | 1017.5 |
| 20260901055827 | 84 | 163 | 1.7 | 2.6 | 0.00 | 0.00 | 0.00 | 71 | 1017.4 |
| 20260901055324 | 84 | 151 | 2.6 | 3.5 | 0.00 | 0.00 | 0.00 | 71 | 1017.6 |
| 20260901054820 | 84 | 169 | 4.3 | 7.0 | 0.00 | 0.00 | 0.00 | 70 | 1017.5 |
| 20260901054317 | 84 | 184 | 5.2 | 7.0 | 0.00 | 0.00 | 0.00 | 69 | 1017.6 |
| 20260901053813 | 84 | 150 | 5.2 | 6.1 | 0.00 | 0.00 | 0.00 | 69 | 1017.4 |
| 20260901053307 | 84 | 142 | 5.2 | 7.8 | 0.00 | 0.00 | 0.00 | 68 | 1017.4 |
| 20260901052757 | 84 | 111 | 3.5 | 5.2 | 0.00 | 0.00 | 0.00 | 68 | 1017.5 |
| 20260901052253 | 84 | 127 | 2.6 | 3.5 | 0.00 | 0.00 | 0.00 | 68 | 1017.2 |
| 20260901051751 | 84 | 164 | 4.3 | 6.1 | 0.00 | 0.00 | 0.00 | 67 | 1017.3 |
| 20260901051246 | 85 | 136 | 5.2 | 6.1 | 0.00 | 0.00 | 0.00 | 67 | 1017.2 |
| 20260901050742 | 85 | 132 | 5.2 | 7.0 | 0.00 | 0.00 | 0.00 | 67 | 1017.2 |
| 20260901050237 | 85 | 186 | 2.6 | 3.5 | 0.00 | 0.00 | 0.00 | 66 | 1017.1 |
| 20260901045732 | 85 | 108 | 3.5 | 5.2 | 0.00 | 0.00 | 0.00 | 66 | 1016.9 |
| 20260901045227 | 85 | 173 | 3.5 | 5.2 | 0.00 | 0.00 | 0.00 | 66 | 1017.1 |
| 20260901044722 | 85 | 199 | 1.7 | 2.6 | 0.00 | 0.00 | 0.00 | 66 | 1017.0 |
| 20260901044219 | 85 | 105 | 5.2 | 6.1 | 0.00 | 0.00 | 0.00 | 65 | 1017.1 |
| 20260901043714 | 86 | 146 | 2.6 | 6.1 | 0.00 | 0.00 | 0.00 | 65 | 1017.1 |
| 20260901043209 | 86 | 159 | 1.7 | 2.6 | 0.00 | 0.00 | 0.00 | 65 | 1017.1 |
| 20260901042709 | 86 | 209 | 6.1 | 7.8 | 0.00 | 0.00 | 0.00 | 64 | 1017.0 |
| 20260901042203 | 86 | 212 | 1.7 | 2.6 | 0.00 | 0.00 | 0.00 | 64 | 1017.0 |
| 20260901041659 | 86 | 116 | 6.1 | 7.0 | 0.00 | 0.00 | 0.00 | 63 | 1016.8 |
| 20260901041158 | 86 | 116 | 7.8 | 8.7 | 0.00 | 0.00 | 0.00 | 63 | 1016.8 |
| 20260901040654 | 86 | 74 | 5.2 | 7.0 | 0.00 | 0.00 | 0.00 | 62 | 1016.8 |
| 20260901040147 | 86 | 113 | 4.3 | 7.0 | 0.00 | 0.00 | 0.00 | 61 | 1017.0 |
| 20260901035646 | 87 | 139 | 7.0 | 7.0 | 0.00 | 0.00 | 0.00 | 61 | 1016.8 |
| 20260901035144 | 87 | 139 | 3.5 | 5.2 | 0.00 | 0.00 | 0.00 | 60 | 1016.9 |
| 20260901034638 | 87 | 119 | 6.1 | 7.8 | 0.00 | 0.00 | 0.00 | 60 | 1016.8 |
| 20260901034133 | 87 | 112 | 4.3 | 7.8 | 0.00 | 0.00 | 0.00 | 59 | 1016.9 |
| 20260901033632 | 87 | 146 | 8.7 | 9.6 | 0.00 | 0.00 | 0.00 | 59 | 1017.2 |
| 20260901033132 | 87 | 139 | 5.2 | 7.0 | 0.00 | 0.00 | 0.00 | 58 | 1016.8 |
| 20260901032630 | 87 | 133 | 6.1 | 7.8 | 0.00 | 0.00 | 0.00 | 58 | 1016.9 |
| 20260901032126 | 88 | 67 | 6.1 | 8.7 | 0.00 | 0.00 | 0.00 | 57 | 1016.7 |
| 20260901031621 | 88 | 114 | 7.0 | 9.6 | 0.00 | 0.00 | 0.00 | 56 | 1016.8 |
| 20260901031117 | 88 | 115 | 2.6 | 3.5 | 0.00 | 0.00 | 0.00 | 56 | 1016.7 |
| 20260901030617 | 89 | 149 | 7.8 | 12.2 | 0.00 | 0.00 | 0.00 | 54 | 1016.5 |
| 20260901030112 | 89 | 116 | 5.2 | 7.0 | 0.00 | 0.00 | 0.00 | 53 | 1016.6 |
| 20260901025606 | 89 | 62 | 4.3 | 7.0 | 0.00 | 0.00 | 0.00 | 51 | 1016.4 |
| 20260901025101 | 89 | 100 | 2.6 | 3.5 | 0.00 | 0.00 | 0.00 | 50 | 1016.4 |
| 20260901024555 | 90 | 137 | 4.3 | 6.1 | 0.00 | 0.00 | 0.00 | 48 | 1016.3 |
| 20260901024054 | 90 | 110 | 4.3 | 5.2 | 0.00 | 0.00 | 0.00 | 47 | 1016.1 |
| 20260901023553 | 90 | 153 | 3.5 | 3.5 | 0.00 | 0.00 | 0.00 | 46 | 1016.1 |
| 20260901023048 | 90 | 84 | 2.6 | 2.6 | 0.00 | 0.00 | 0.00 | 45 | 1015.9 |
| 20260901022543 | 90 | 121 | 3.5 | 5.2 | 0.00 | 0.00 | 0.00 | 45 | 1015.9 |
| 20260901022039 | 90 | 78 | 1.7 | 2.6 | 0.00 | 0.00 | 0.00 | 45 | 1015.9 |
| 20260901021534 | 90 | 68 | 4.3 | 5.2 | 0.00 | 0.00 | 0.00 | 44 | 1015.8 |
| 20260901021030 | 90 | 81 | 1.7 | 2.6 | 0.00 | 0.00 | 0.00 | 44 | 1015.8 |
| 20260901020525 | 91 | 80 | 3.5 | 3.5 | 0.00 | 0.00 | 0.00 | 44 | 1015.6 |
| 20260901020020 | 91 | 113 | 0.9 | 1.7 | 0.00 | 0.00 | 0.00 | 44 | 1015.7 |
| 20260901015516 | 91 | 123 | 3.5 | 5.2 | 0.00 | 0.00 | 0.00 | 43 | 1015.5 |